Location: Arrodets-la-Barthe
(43.0306°N, 0.2829°E)
Time: 19:46:11
(UTC+00:00)

Cosmos 1269 Rocket - Pass Details

Date: 24 October 2021
Orbit: 773 x 778 km, 74.1° (Epoch: 02 December)

Event Time Altitude Azimuth Distance (km) Brightness Sun altitude
Rises 17:51:16 0° 338° (NNW) 3,266 7.5 -9.7°
Reaches altitude 10° 17:53:40 10° 337° (NNW) 2,333 6.7 -10.1°
Maximum altitude 17:58:57 76° 253° (WSW) 804 4.3 -11.1°
Drops below altitude 10° 18:04:12 10° 168° (SSE) 2,314 6.4 -12.0°
Sets 18:06:34 0° 167° (SSE) 3,236 7.2 -12.4°
